Location: Unspecified
(48.8656°N, 0.0000°E)
Time: 01:46:55
(UTC+00:00)

Vanguard 1 Rocket - Pass Details

Date: 20 June 2019
Orbit: 652 x 4224 km, 34.3° (Epoch: 16 August)

Event Time Altitude Azimuth Distance (km) Brightness Sun altitude
Rises 17:27:17 0° 228° (SW) 7,408 12.6 22.9°
Reaches altitude 10° 17:33:49 10° 220° (SW) 5,787 12.0 21.9°
Maximum altitude 17:46:05 29° 169° (S) 3,126 10.1 19.9°
Drops below altitude 10° 17:53:32 10° 114° (ESE) 3,430 9.8 18.7°
Sets 17:56:15 0° 102° (ESE) 4,053 10.1 18.3°
